Location: G�migny
(47.9646°N, 1.6950°E)
Time: 13:27:44
(UTC+00:00)

YAOGAN 6 - Pass Details

Date: 30 January 2020
Orbit: 465 x 505 km, 97.0° (Epoch: 25 February)

Event Time Altitude Azimuth Distance (km) Brightness Sun altitude
Rises 17:25:30 0° 154° (SSE) 2,577 6.2 -6.4°
Reaches altitude 10° 17:27:37 10° 149° (SSE) 1,693 5.2 -6.8°
Maximum altitude 17:31:09 50° 73° (ENE) 637 2.8 -7.3°
Drops below altitude 10° 17:34:40 10° 358° (N) 1,686 5.2 -7.9°
Sets 17:36:46 0° 353° (N) 2,564 6.1 -8.2°
